Погода в Тресорукове

Россия / Воронежская область     51°12′44″N   39°30′52″E
темп.,
°C
ветер,
м/с
пор.,
м/с
влажн.,
%
обл.,
%
осадки,
мм/ч
давл.,
гПа
погр.,
м
6 марта, сб
сб600:00−2сз249089 0.0 1015158
03:00−3ссз249278 0.0 1016146
06:00−3с129494 0.0 1016117
09:00−3сз238697 0.0 1017316
12:00−2сз4576100 0.0 1017690
15:00−1сз5764100 0.1 10161118
18:00−4сз7107657 0.1 1017912
21:00−5сз697544 0.1 1018763
7 марта, вс
вс700:00−5зсз59730 0.0 1019636
03:00−6зсз58750 0.0 1020413
06:00−6зюз59770 0.0 1019425
09:00−4зюз7127412 0.0 1017864
12:00−2юз91454100 0.0 10131096
15:000юз111748100 0.0 10091438
18:000зюз91859100 0.0 10061369
21:00−1зюз101787100 0.1 10051105
8 марта, пн
пн800:00−1з91589100 0.4 10051000
03:00−3з4980100 1.3 1006537
06:00−3юз6127355 0.0 1005395
09:00−1з8128875 0.2 10051107
12:00−1зсз81075100 0.3 10061230
15:00−3зсз7104983 0.4 10081111
18:00−5сз6107130 0.0 1010862
21:00−6зсз596934 0.0 1012839
9 марта, вт
вт900:00−6зсз47740 0.0 1013553
03:00−7зсз36790 0.0 1013345
06:00−8зсз35840 0.0 1014301
09:00−7сз348238 0.0 1015341
12:00−5сз346792 0.0 1015821
15:00−5сз456696 0.1 1016884
18:00−6ссз4680100 0.1 1017636
21:00−7ссз5673100 0.3 1020812
10 марта, ср
ср1000:00−9ссз4674100 0.0 1022761
03:00−10ссз467687 0.0 1023653
06:00−11сз458093 0.0 1024499
09:00−10сз457476 0.0 1025500
12:00−8сз355589 0.0 1025720
15:00−6зюз355494 0.0 1024990
18:00−6зсз4783100 0.1 1022668
21:00−6зсз1292100 0.4 1023174